Weather History for Juneau, AK

Change the Weather History Date:

Saturday, February 22, 2014

  Actual Average Record
Temperature  
Mean Temperature 20 °F 31 °F  
Max Temperature 31 °F 36 °F 46 °F (1997)
Min Temperature 9 °F 26 °F -6 °F (1956)
Degree Days  
Heating Degree Days 45 34  
Month to date heating degree days 909 774  
Since 1 July heating degree days 5408 5634  
Moisture  
Dew Point 9 °F    
Average Humidity 64    
Maximum Humidity 96    
Minimum Humidity 32    
Precipitation  
Precipitation 0.00 in 0.14 in 0.86 in (2005)
Month to date precipitation 1.98 3.26  
Year to date precipitation 12.13 8.61  
Snow  
Snow 0.00 in 0.50 in 4.80 in (1965)
Month to date snowfall 26.9 13.9  
Since 1 July snowfall 90.9 71.1  
Snow Depth 5.00 in    
Sea Level Pressure  
Sea Level Pressure 30.44 in    
Wind  
Wind Speed 5 mph (ESE)    
Max Wind Speed 18 mph    
Max Gust Speed 26 mph    
Visibility 10 miles    
Events Fog    
T = Trace of Precipitation, MM = Missing Value Source: NWS Daily Summary

Daily Weather History Graph

Daily Weather History Graph

Search for Another Location

Airport:

Trip Planner

Search our weather history database for the weather conditions in past years. The results will help you decide how hot, cold, wet, or windy it might be!

Date:

Astronomy

Feb. 22, 2014 Rise Set
Actual Time 7:11 AM AKST 5:12 PM AKST
Civil Twilight 6:31 AM AKST 5:53 PM AKST
Nautical Twilight 5:45 AM AKST 6:39 PM AKST
Astronomical Twilight 4:59 AM AKST 7:25 PM AKST
Moon 1:50 AM AKST 9:51 AM AKST
Length of Visible Light 11h 21m
Length of Day
10h 00m
Waning Gibbous, 48% of the Moon is Illuminated
Feb 22
Waning Gibbous
Feb 28
New
Mar 8
First Quarter
Mar 16
Full
Mar 23
Last Quarter

Hourly Weather History & Observations

Time (AKST) Temp. Windchill Dew Point Humidity Pressure Visibility Wind Dir Wind Speed Gust Speed Precip Events Conditions
12:53 AM 17.1 °F - 14.0 °F 88% 30.38 in 10.0 mi Calm Calm - N/A Fog Patches of Fog
1:53 AM 14.0 °F - 12.0 °F 92% 30.39 in 10.0 mi Calm Calm - N/A Fog Patches of Fog
2:53 AM 12.9 °F - 9.0 °F 84% 30.40 in 10.0 mi Calm Calm - N/A   Partly Cloudy
3:53 AM 14.0 °F - 10.0 °F 84% 30.40 in 10.0 mi Calm Calm - N/A   Partly Cloudy
4:53 AM 12.0 °F - 9.0 °F 88% 30.40 in 10.0 mi Calm Calm - N/A   Partly Cloudy
5:53 AM 12.0 °F - 9.0 °F 88% 30.40 in 10.0 mi Calm Calm - N/A   Partly Cloudy
6:53 AM 10.0 °F - 8.1 °F 92% 30.41 in 10.0 mi Calm Calm - N/A   Partly Cloudy
7:53 AM 12.0 °F - 9.0 °F 88% 30.42 in 10.0 mi Calm Calm - N/A   Partly Cloudy
8:53 AM 17.1 °F - 14.0 °F 88% 30.43 in 10.0 mi Calm Calm - N/A   Partly Cloudy
9:53 AM 23.0 °F 11.7 °F 14.0 °F 68% 30.44 in 10.0 mi SE 11.5 mph - N/A   Partly Cloudy
10:53 AM 27.0 °F 18.7 °F 12.0 °F 53% 30.45 in 10.0 mi ESE 8.1 mph - N/A   Partly Cloudy
11:53 AM 28.0 °F 20.0 °F 12.0 °F 51% 30.46 in 10.0 mi SE 8.1 mph - N/A   Partly Cloudy
12:53 PM 28.0 °F 18.6 °F 8.1 °F 43% 30.46 in 10.0 mi SSE 10.4 mph - N/A   Clear
1:53 PM 30.0 °F - 5.0 °F 35% 30.47 in 10.0 mi Calm Calm - N/A   Partly Cloudy
2:53 PM 28.0 °F 18.6 °F 8.1 °F 43% 30.46 in 10.0 mi South 10.4 mph - N/A   Clear
3:53 PM 27.0 °F 15.6 °F 7.0 °F 43% 30.46 in 10.0 mi SE 13.8 mph - N/A   Clear
4:53 PM 26.1 °F 16.8 °F 5.0 °F 41% 30.47 in 10.0 mi East 9.2 mph - N/A   Clear
5:53 PM 24.1 °F 19.7 °F 7.0 °F 48% 30.48 in 10.0 mi ENE 3.5 mph - N/A   Clear
6:53 PM 21.0 °F 14.6 °F 9.0 °F 60% 30.48 in 10.0 mi East 4.6 mph - N/A   Clear
7:53 PM 24.1 °F - 6.1 °F 46% 30.48 in 10.0 mi Calm Calm - N/A   Clear
8:53 PM 24.1 °F 13.7 °F 6.1 °F 46% 30.48 in 10.0 mi East 10.4 mph - N/A   Clear
9:53 PM 25.0 °F 13.1 °F 3.9 °F 41% 30.48 in 10.0 mi ENE 13.8 mph 20.7 mph N/A   Clear
10:53 PM 23.0 °F 13.1 °F 5.0 °F 46% 30.48 in 10.0 mi East 9.2 mph - N/A   Clear
11:53 PM 19.9 °F 10.1 °F 9.0 °F 62% 30.47 in 10.0 mi ESE 8.1 mph 18.4 mph N/A   Clear